Weather in Svetlovodskoye

Russia / The Kabardino-Balkar Republic     43°53′46″N   43°10′51″E
temp.,
°C
wind,
m/s
gust,
m/s
humid.,
%
clouds,
%
prec.,
mm/h
press.,
hPa
HPBL,
m
17 june, thu
thu1700:00+18se22870 0.0 100513
03:00+16sw11850 0.0 100411
06:00+18wnw36880 0.0 1005166
09:00+21wnw815835 0.0 1007859
12:00+24nw11147321 0.0 10091227
15:00+23nw9127233 0.1 10111240
18:00+21w368649 0.7 1013202
21:00+17wnw379014 0.9 1015143
18 june, fri
fri1800:00+16w479158 0.0 1016125
03:00+16w368785 0.0 1017119
06:00+17w358380 0.0 1017123
09:00+21nw34625 0.0 1016537
12:00+23nne22540 0.0 10161091
15:00+24nne21580 0.0 10151149
18:00+24e22693 0.0 1016643
21:00+20sse117384 0.0 101611
19 june, sat
sat1900:00+18s11810 0.0 101611
03:00+17sse12865 0.0 101611
06:00+19s1284100 0.0 101695
09:00+23ese577398 0.0 1015655
12:00+25ese7968100 0.0 10141429
15:00+26se5970100 0.1 10121501
18:00+26ese377453 0.0 1012349
21:00+19e410690 0.0 1014260
20 june, sun
sun2000:00+16se22853 0.0 101414
03:00+16ese1188100 0.0 101314
06:00+17ese118576 0.0 101290
09:00+21ene227585 0.0 1012482
12:00+25ne23685 0.0 1012808
15:00+27nnw11613 0.0 1011997
18:00+27w22690 0.0 1010242
21:00+21ne22802 0.0 101233
21 june, mon
mon2100:00+18ene11710 0.0 101211
03:00+17se01700 0.0 101211
06:00+18ese11710 0.0 101254
09:00+22e34650 0.0 1011372
12:00+26e56630 0.0 1010778
15:00+28ese45583 0.0 10091023
18:00+27se24715 0.0 1009181
21:00+20ene11544 0.0 101211